timestamp,wind_dir_avg,wind_spd_max_dir,wind_spd_avg,wind_spd_gust,battery_voltage,lat,long
2018-12-13 00:00:00+00:00,37.0,38.0,11.18,12.58,,47.59359,-54.27349
2018-12-13 00:10:00+00:00,42.0,50.0,10.63,12.02,,47.59359,-54.27349
2018-12-13 00:20:00+00:00,39.0,36.0,10.08,11.6,,47.59359,-54.27349
2018-12-13 00:30:00+00:00,37.0,35.0,9.48,11.09,,47.59359,-54.27349
2018-12-13 00:40:00+00:00,41.0,41.0,9.16,12.47,,47.59359,-54.27349
2018-12-13 00:50:00+00:00,38.0,49.0,8.86,10.65,,47.59359,-54.27349
2018-12-13 01:00:00+00:00,36.0,38.0,11.17,12.09,,47.59359,-54.27349
2018-12-13 01:10:00+00:00,42.0,47.0,10.75,12.64,,47.59359,-54.27349
2018-12-13 01:20:00+00:00,41.0,53.0,11.06,13.46,,47.59359,-54.27349
2018-12-13 01:30:00+00:00,39.0,44.0,9.95,11.8,,47.59359,-54.27349
2018-12-13 01:40:00+00:00,38.0,39.0,10.04,12.31,,47.59359,-54.27349
2018-12-13 01:50:00+00:00,16.0,14.0,7.82,9.24,,47.59359,-54.27349
2018-12-13 02:00:00+00:00,16.0,20.0,6.81,7.53,,47.59359,-54.27349
2018-12-13 02:10:00+00:00,15.0,22.0,7.94,9.4,,47.59359,-54.27349
2018-12-13 02:20:00+00:00,13.0,17.0,8.18,9.73,,47.59359,-54.27349
2018-12-13 02:30:00+00:00,13.0,12.0,8.53,11.28,,47.59359,-54.27349
2018-12-13 02:40:00+00:00,9.0,3.0,7.88,9.1,,47.59359,-54.27349
2018-12-13 02:50:00+00:00,15.0,18.0,8.63,10.0,,47.59359,-54.27349
2018-12-13 03:00:00+00:00,8.0,11.0,9.27,11.19,,47.59359,-54.27349
2018-12-13 03:10:00+00:00,3.0,5.0,9.75,12.0,,47.59359,-54.27349
2018-12-13 03:20:00+00:00,9.0,6.0,10.17,11.78,,47.59359,-54.27349
2018-12-13 03:30:00+00:00,3.0,2.0,10.02,11.3,,47.59359,-54.27349
2018-12-13 03:40:00+00:00,2.0,2.0,9.9,11.55,,47.59359,-54.27349
2018-12-13 03:50:00+00:00,0.0,353.0,9.73,11.38,,47.59359,-54.27349
2018-12-13 04:00:00+00:00,1.0,358.0,9.34,11.15,,47.59359,-54.27349
2018-12-13 04:10:00+00:00,3.0,3.0,9.4,11.02,,47.59359,-54.27349
2018-12-13 04:20:00+00:00,359.0,354.0,10.66,12.02,,47.59359,-54.27349
2018-12-13 04:30:00+00:00,355.0,357.0,9.77,11.36,,47.59359,-54.27349
2018-12-13 04:40:00+00:00,355.0,358.0,10.42,11.49,,47.59359,-54.27349
2018-12-13 04:50:00+00:00,349.0,351.0,10.71,12.21,,47.59359,-54.27349
2018-12-13 05:00:00+00:00,0.0,355.0,10.44,11.96,,47.59359,-54.27349
2018-12-13 05:10:00+00:00,358.0,0.0,11.26,13.02,,47.59359,-54.27349
2018-12-13 05:20:00+00:00,353.0,348.0,9.37,10.53,,47.59359,-54.27349
2018-12-13 05:30:00+00:00,350.0,350.0,10.71,12.66,,47.59359,-54.27349
2018-12-13 05:40:00+00:00,355.0,350.0,12.24,14.55,,47.59359,-54.27349
2018-12-13 05:50:00+00:00,354.0,356.0,11.92,14.18,,47.59359,-54.27349
2018-12-13 06:00:00+00:00,356.0,351.0,10.09,11.45,,47.59359,-54.27349
2018-12-13 06:10:00+00:00,355.0,356.0,11.8,13.01,,47.59359,-54.27349
2018-12-13 06:20:00+00:00,354.0,349.0,11.08,13.34,,47.59359,-54.27349
2018-12-13 06:30:00+00:00,353.0,356.0,10.64,13.0,,47.59359,-54.27349
2018-12-13 06:40:00+00:00,354.0,349.0,10.16,11.41,,47.59359,-54.27349
2018-12-13 06:50:00+00:00,354.0,359.0,9.23,10.56,,47.59359,-54.27349
2018-12-13 07:00:00+00:00,350.0,354.0,10.78,12.42,,47.59359,-54.27349
2018-12-13 07:10:00+00:00,348.0,351.0,8.62,9.51,,47.59359,-54.27349
2018-12-13 07:20:00+00:00,343.0,341.0,9.5,12.5,,47.59359,-54.27349
2018-12-13 07:30:00+00:00,353.0,352.0,8.73,9.59,,47.59359,-54.27349
2018-12-13 07:40:00+00:00,341.0,332.0,10.12,11.38,,47.59359,-54.27349
2018-12-13 07:50:00+00:00,344.0,338.0,10.43,11.62,,47.59359,-54.27349
2018-12-13 08:00:00+00:00,342.0,340.0,10.81,12.46,,47.59359,-54.27349
2018-12-13 08:10:00+00:00,338.0,344.0,10.53,11.61,,47.59359,-54.27349
2018-12-13 08:20:00+00:00,349.0,352.0,8.73,9.89,,47.59359,-54.27349
2018-12-13 08:30:00+00:00,347.0,347.0,9.74,11.96,,47.59359,-54.27349
2018-12-13 08:40:00+00:00,357.0,2.0,8.01,8.89,,47.59359,-54.27349
2018-12-13 08:50:00+00:00,351.0,345.0,7.87,9.12,,47.59359,-54.27349
2018-12-13 09:00:00+00:00,356.0,353.0,9.03,10.9,,47.59359,-54.27349
2018-12-13 09:10:00+00:00,6.0,5.0,11.38,13.09,,47.59359,-54.27349
2018-12-13 09:20:00+00:00,6.0,3.0,10.22,11.43,,47.59359,-54.27349
2018-12-13 09:30:00+00:00,12.0,10.0,10.59,11.64,,47.59359,-54.27349
2018-12-13 09:40:00+00:00,12.0,15.0,11.24,12.85,,47.59359,-54.27349
2018-12-13 09:50:00+00:00,19.0,14.0,9.72,11.08,,47.59359,-54.27349
2018-12-13 10:00:00+00:00,9.0,6.0,10.95,12.62,,47.59359,-54.27349
2018-12-13 10:10:00+00:00,10.0,7.0,11.88,13.3,,47.59359,-54.27349
2018-12-13 10:20:00+00:00,3.0,1.0,12.84,14.32,,47.59359,-54.27349
2018-12-13 10:30:00+00:00,9.0,4.0,10.1,12.27,,47.59359,-54.27349
2018-12-13 10:40:00+00:00,7.0,7.0,13.84,15.95,,47.59359,-54.27349
2018-12-13 10:50:00+00:00,21.0,18.0,12.78,14.35,,47.59359,-54.27349
2018-12-13 11:00:00+00:00,11.0,14.0,11.27,12.88,,47.59359,-54.27349
2018-12-13 11:10:00+00:00,8.0,18.0,11.68,13.66,,47.59359,-54.27349
2018-12-13 11:20:00+00:00,16.0,19.0,11.79,13.39,,47.59359,-54.27349
2018-12-13 11:30:00+00:00,25.0,25.0,10.82,13.41,,47.59359,-54.27349
2018-12-13 11:40:00+00:00,13.0,12.0,12.14,14.02,,47.59359,-54.27349
2018-12-13 11:50:00+00:00,20.0,21.0,11.01,13.55,,47.59359,-54.27349
2018-12-13 12:00:00+00:00,18.0,33.0,10.05,11.64,,47.59359,-54.27349
2018-12-13 12:10:00+00:00,20.0,27.0,10.34,12.36,,47.59359,-54.27349
2018-12-13 12:20:00+00:00,16.0,13.0,10.09,11.54,,47.59359,-54.27349
2018-12-13 12:30:00+00:00,16.0,14.0,10.65,12.95,,47.59359,-54.27349
2018-12-13 12:40:00+00:00,16.0,2.0,10.75,12.88,,47.59359,-54.27349
2018-12-13 12:50:00+00:00,16.0,17.0,9.89,11.67,,47.59359,-54.27349
2018-12-13 13:00:00+00:00,26.0,34.0,8.1,9.76,,47.59359,-54.27349
2018-12-13 13:10:00+00:00,24.0,38.0,9.14,11.06,,47.59359,-54.27349
2018-12-13 13:20:00+00:00,35.0,32.0,9.33,10.97,,47.59359,-54.27349
2018-12-13 13:30:00+00:00,37.0,39.0,9.42,11.58,,47.59359,-54.27349
2018-12-13 13:40:00+00:00,15.0,14.0,9.41,10.75,,47.59359,-54.27349
2018-12-13 13:50:00+00:00,16.0,17.0,10.17,11.27,,47.59359,-54.27349
2018-12-13 14:00:00+00:00,16.0,22.0,9.87,11.07,,47.59359,-54.27349
2018-12-13 14:10:00+00:00,13.0,11.0,9.86,11.45,,47.59359,-54.27349
2018-12-13 14:20:00+00:00,351.0,347.0,9.58,10.43,,47.59359,-54.27349
2018-12-13 14:30:00+00:00,10.0,12.0,8.4,10.1,,47.59359,-54.27349
2018-12-13 14:40:00+00:00,359.0,353.0,9.64,10.66,,47.59359,-54.27349
2018-12-13 14:50:00+00:00,349.0,356.0,11.38,12.74,,47.59359,-54.27349
2018-12-13 15:00:00+00:00,344.0,344.0,9.45,10.22,,47.59359,-54.27349
2018-12-13 15:10:00+00:00,352.0,351.0,8.98,11.47,,47.59359,-54.27349
2018-12-13 15:20:00+00:00,357.0,359.0,9.88,11.24,,47.59359,-54.27349
2018-12-13 15:30:00+00:00,354.0,346.0,7.62,9.0,,47.59359,-54.27349
2018-12-13 15:40:00+00:00,347.0,349.0,10.85,12.14,,47.59359,-54.27349
2018-12-13 15:50:00+00:00,340.0,345.0,7.68,9.7,,47.59359,-54.27349
2018-12-13 16:00:00+00:00,353.0,355.0,7.26,8.11,,47.59359,-54.27349
2018-12-13 16:10:00+00:00,328.0,336.0,7.24,8.32,,47.59359,-54.27349
2018-12-13 16:20:00+00:00,332.0,342.0,7.14,8.2,,47.59359,-54.27349
2018-12-13 16:30:00+00:00,339.0,346.0,7.65,9.44,,47.59359,-54.27349
2018-12-13 16:40:00+00:00,335.0,333.0,8.02,9.37,,47.59359,-54.27349
2018-12-13 16:50:00+00:00,336.0,333.0,6.24,7.69,,47.59359,-54.27349
2018-12-13 17:00:00+00:00,323.0,326.0,5.69,6.49,,47.59359,-54.27349
2018-12-13 17:10:00+00:00,329.0,326.0,5.83,6.93,,47.59359,-54.27349
2018-12-13 17:20:00+00:00,318.0,317.0,8.22,9.98,,47.59359,-54.27349
2018-12-13 17:30:00+00:00,311.0,310.0,8.19,9.77,,47.59359,-54.27349
2018-12-13 17:40:00+00:00,321.0,323.0,7.82,9.22,,47.59359,-54.27349
2018-12-13 17:50:00+00:00,321.0,317.0,6.15,7.9,,47.59359,-54.27349
2018-12-13 18:00:00+00:00,305.0,308.0,6.66,8.03,,47.59359,-54.27349
2018-12-13 18:10:00+00:00,318.0,320.0,6.77,7.54,,47.59359,-54.27349
2018-12-13 18:20:00+00:00,307.0,308.0,7.01,8.01,,47.59359,-54.27349
2018-12-13 18:30:00+00:00,313.0,319.0,7.68,8.62,,47.59359,-54.27349
2018-12-13 18:40:00+00:00,309.0,307.0,7.97,9.07,,47.59359,-54.27349
2018-12-13 18:50:00+00:00,308.0,314.0,7.73,9.86,,47.59359,-54.27349
2018-12-13 19:00:00+00:00,298.0,292.0,6.89,8.83,,47.59359,-54.27349
2018-12-13 19:10:00+00:00,309.0,306.0,6.63,8.04,,47.59359,-54.27349
2018-12-13 19:20:00+00:00,301.0,300.0,7.52,8.28,,47.59359,-54.27349
2018-12-13 19:30:00+00:00,297.0,298.0,7.65,8.87,,47.59359,-54.27349
2018-12-13 19:40:00+00:00,298.0,297.0,6.86,8.28,,47.59359,-54.27349
2018-12-13 19:50:00+00:00,289.0,294.0,7.54,8.65,,47.59359,-54.27349
2018-12-13 20:00:00+00:00,288.0,290.0,8.09,9.39,,47.59359,-54.27349
2018-12-13 20:10:00+00:00,284.0,284.0,6.43,7.82,,47.59359,-54.27349
2018-12-13 20:20:00+00:00,282.0,284.0,7.16,8.48,,47.59359,-54.27349
2018-12-13 20:30:00+00:00,297.0,298.0,7.28,8.64,,47.59359,-54.27349
2018-12-13 20:40:00+00:00,298.0,300.0,7.98,9.04,,47.59359,-54.27349
2018-12-13 20:50:00+00:00,299.0,300.0,8.12,9.86,,47.59359,-54.27349
2018-12-13 21:00:00+00:00,292.0,289.0,8.43,10.21,,47.59359,-54.27349
2018-12-13 21:10:00+00:00,298.0,295.0,6.88,8.23,,47.59359,-54.27349
2018-12-13 21:20:00+00:00,307.0,307.0,8.16,9.12,,47.59359,-54.27349
2018-12-13 21:30:00+00:00,305.0,305.0,6.54,7.81,,47.59359,-54.27349
2018-12-13 21:40:00+00:00,296.0,298.0,7.56,9.01,,47.59359,-54.27349
2018-12-13 21:50:00+00:00,299.0,303.0,8.68,9.97,,47.59359,-54.27349
2018-12-13 22:00:00+00:00,291.0,285.0,8.11,9.16,,47.59359,-54.27349
2018-12-13 22:10:00+00:00,298.0,294.0,8.41,9.75,,47.59359,-54.27349
2018-12-13 22:20:00+00:00,295.0,306.0,8.48,10.21,,47.59359,-54.27349
2018-12-13 22:30:00+00:00,293.0,299.0,8.27,9.93,,47.59359,-54.27349
2018-12-13 22:40:00+00:00,299.0,314.0,7.57,10.4,,47.59359,-54.27349
2018-12-13 22:50:00+00:00,286.0,289.0,7.21,8.94,,47.59359,-54.27349
2018-12-13 23:00:00+00:00,289.0,295.0,7.91,9.38,,47.59359,-54.27349
2018-12-13 23:10:00+00:00,273.0,283.0,7.41,8.78,,47.59359,-54.27349
2018-12-13 23:20:00+00:00,284.0,286.0,7.34,9.16,,47.59359,-54.27349
2018-12-13 23:30:00+00:00,285.0,282.0,7.94,9.09,,47.59359,-54.27349
2018-12-13 23:40:00+00:00,277.0,278.0,7.21,8.91,,47.59359,-54.27349
2018-12-13 23:50:00+00:00,279.0,274.0,7.78,8.92,,47.59359,-54.27349
